Regional Weather Roundup
Issued by NWS

Home | Current Version | Previous Version | Text Only | Print | Product List | Glossary Off
Versions: 1 2 3 4 5 6 7 8 9 10 11 12 13 14 15 16 17 18 19 20 21 22 23 24 25 26 27 28 29 30 31 32 33 34 35 36 37 38 39 40 41 42 43 44 45 46 47 48 49 50

000
ASUS43 KMKX 161121
RWRWI

WISCONSIN REGIONAL WEATHER ROUNDUP
NATIONAL WEATHER SERVICE MILWAUKEE/SULLIVAN WI
600 AM CDT WED APR 16 2014

NOTE: "FAIR" INDICATES FEW OR NO CLOUDS BELOW 12,000 FEET WITH NO
SIGNIFICANT WEATHER AND/OR OBSTRUCTIONS TO VISIBILITY.

WIZ001-002-006>008-014>016-023>028-161200-
NORTHWEST WISCONSIN

CITY           SKY/WX    TMP DP  RH WIND       PRES   REMARKS
SUPERIOR ARPT  CLOUDY    27  18  70 NE7       30.14S WCI  19
ASHLAND        CLOUDY    22  12  65 NE3       30.17R
HAYWARD        CLOUDY    26  10  50 E7        30.10F WCI  18
SIREN          LGT SNOW  27  24  89 E8        30.08S VSB 1   WCI  19
RICE LAKE      NOT AVBL
LADYSMITH      CLOUDY    29  19  65 SE6       30.14R WCI  23
EAU CLAIRE     CLOUDY    29  23  78 E12       30.11R WCI  19
MENOMONIE      CLOUDY    30  25  81 E13       30.09R WCI  20
NEW RICHMOND   CLOUDY    29  24  82 E14G22    30.03F WCI  18
OSCEOLA        CLOUDY    29  27  91 E13G21    30.06F WCI  19
$$

WIZ003>005-009-010-017-018-161200-
NORTH CENTRAL WISCONSIN

CITY           SKY/WX    TMP DP  RH WIND       PRES   REMARKS
WOODRUFF       CLOUDY    18   7  61 SE5       30.14S WCI  11
RHINELANDER    CLOUDY    14   9  80 E3        30.15S
EAGLE RIVER    MOCLDY    11   6  81 CALM      30.16R
LAND O LAKES   CLOUDY     3   0  85 CALM      30.17R
PHILLIPS       CLOUDY    23  14  68 SE3       30.13R
TOMAHAWK       CLOUDY    21  14  75 CALM      30.15R
MEDFORD        CLOUDY    26  17  70 SE7       30.13R WCI  18
MERRILL        CLOUDY    24  16  72 CALM      30.17R
$$

WIZ029-030-035-036-043>047-161200-
CENTRAL WISCONSIN

CITY           SKY/WX    TMP DP  RH WIND       PRES   REMARKS
WAUSAU         CLOUDY    25  15  66 SE6       30.16R WCI  18
MOSINEE        CLOUDY    25  18  74 SE5       30.18R WCI  19
MARSHFIELD     CLOUDY    26  21  81 SE10      30.14S WCI  16
STEVENS POINT  CLOUDY    24  16  73 SE6       30.20R WCI  17
WAUPACA        CLOUDY    28  21  74 SE3       30.22R
WAUTOMA        CLOUDY    29  21  71 E5        30.21R WCI  24
WISC RAPIDS    CLOUDY    27  18  69 SE8       30.18S WCI  19
CAMP DOUGLAS   MOCLDY    28  21  76 SE10      30.17R WCI  18
$$

WIZ011>013-019>022-031-037>040-048>050-161200-
NORTHEAST WISCONSIN

CITY           SKY/WX    TMP DP  RH WIND       PRES   REMARKS
ANTIGO         CLOUDY    20  15  81 S6        30.17R WCI  12
STURGEON BAY   CLEAR     25  16  68 S7        30.26R WCI  17
GREEN BAY      CLEAR     24  20  84 CALM      30.24S
MANITOWOC      CLOUDY    24  21  88 CALM      30.26R
APPLETON       MOCLDY    27  19  74 SE7       30.22S WCI  19
CLINTONVILLE   PTCLDY    23  21  93 CALM      30.22R
OSHKOSH        CLOUDY    30  21  69 SE8       30.22R WCI  22
$$

WIZ032>034-041-042-053>061-161200-
SOUTHWEST WISCONSIN

CITY           SKY/WX    TMP DP  RH WIND       PRES   REMARKS
LA CROSSE      CLOUDY    34  17  50 SE12      30.11S WCI  25
SPARTA         CLOUDY    30  19  63 E7        30.15R WCI  24
VIROQUA        CLOUDY    30  20  66 SE14      30.11R WCI  20
BOSCOBEL       CLOUDY    33  18  53 VRB7      30.15S WCI  27
PRAIRIE DU CHI CLOUDY    34  17  50 SE8       30.12R WCI  27
PLATTEVILLE    FAIR      31  22  69 E10       30.15R WCI  22
$$

WIZ056-057-062-063-064-067-068-161200-
SOUTH CENTRAL WISCONSIN

CITY           SKY/WX    TMP DP  RH WIND       PRES   REMARKS
BARABOO/DELLS  CLOUDY    29  19  66 SE6       30.18R WCI  23
LONE ROCK      CLOUDY    30  22  72 E7        30.18R WCI  23
WATERTOWN      CLOUDY    28  23  82 SE6       30.21R WCI  21
MADISON        MOCLDY    28  21  75 SE5       30.21R WCI  23
MIDDLETON      PTSUNNY   30  22  71 SE5       30.19S WCI  25
MONROE         MOCLDY    29  22  75 SE9       30.19R WCI  21
JANESVILLE     MOCLDY    28  23  80 SE8       30.21R WCI  20
$$

WIZ051-052-058>065-066-070>072-161200-
SOUTHEAST WISCONSIN

CITY           SKY/WX    TMP DP  RH WIND       PRES   REMARKS
MILWAUKEE      MOCLDY    31  21  66 S6        30.26R WCI  25
WAUKESHA       PTCLDY    25  21  86 SE5       30.24R WCI  19
MILWAUKEE/TIMM CLOUDY    32  21  64 SE6       30.25R WCI  26
RACINE         PTCLDY    29  21  72 S3        30.27R
BURLINGTON     PTCLDY    22  22  96 CALM      30.24R
KENOSHA        PTCLDY    28  21  75 S7        30.24S WCI  21
FOND DU LAC    CLOUDY    30  25  81 SE10      30.22R WCI  21
SHEBOYGAN      MOCLDY    28  24  85 SE5       30.25R WCI  23
WEST BEND      CLOUDY    30  27  86 SE3       30.24R
JUNEAU         MOCLDY    29  21  71 SE8       30.23R WCI  21
$$

LSZ147-162-161200-
LAKE SUPERIOR

STATION/POSITION TIME  TEMP    WIND        PRES    WAVE
                       AIR SEA DIR/SP/G            HT/PER
                 (UTC) (F)     (DEG/KT/KT) (MB)    (FT/S)
DEVILS ISLAND    1100   24     120/  7/  7 1023.4R
PORT WING        1040   23      70/  2/  3 1021.3R
SAXON HARBOR     1040          180/  2/  6 1021.7R
$$

LMZ867-665-643>646-161200-
LAKE MICHIGAN

STATION/POSITION TIME  TEMP    WIND        PRES    WAVE
                       AIR SEA DIR/SP/G            HT/PER
                 (UTC) (F)     (DEG/KT/KT) (MB)    (FT/S)
NORTHPORT PIER   1000   28     150/  8/ 11 1024.4R
SISTER BAY       1023   24        CALM       N/A
KEWAUNEE LAKESHO 1000   28     240/  2/  4 1024.8R
SHEBOYGAN LAKESH 1100   33     150/ 15/ 16 1025.6R
PORT WASHINGTON  1000   34     140/ 12/ 14 1024.7S
MILWAUKEE LAKESH 1100   35     150/ 11/ 13   N/A
KENOSHA   LAKESH 1100   34     180/ 10/ 14   N/A
$$

TC  - TEMPERATURE IN CELSIUS
VSB - VISIBILITY IN STATUTE MILES
WCI - WIND CHILL INDEX
HX  - HEAT INDEX




USA.gov is the U.S. government's official web portal to all federal, state and local government web resources and services.